LIME

Bergamo/Orio al Serio Airport

Airport
ICAO code
LIME
IATA Code
BGY
Summary
ICAO Region
EUR
ICAO Territory
Location

Orio al Serio, Lombardia

Serving
Bergamo
Elevation
782 ft
Coordinates
45° 40' 5" N , 9° 42' 2" E
KCC
Metar
Observation
LIME 090520Z 31003KT 9999 BKN055 M00/M08 Q1036 NOSIG
Station
Bergamo / Orio Al Serio
Date/Time
2023-02-09 05:20:00
Wind direction
310°
Wind speed
03 kts
Lowest cloud amount
broken clouds
Temperature
-0°C
Dew point
-8°C
Humidity
54%
QNH
1036 hPa
Weather condition
n/a

International airport serving Bergamo in northern Italy. Officially also known as Il Caravaggio International Airport

Climatology

Humid “subtropical” climate (Köppen climate classification Cfa) - characterized by hot, humid summers and cool winters. Significant amounts of precipitation occur in all seasons in most areas. Winter rainfall (and sometimes snowfall) is associated with large storms that the westerlies steer from west to east. Most summer rainfall occurs during thunderstorms.

Runways

Designator Length Width Surface Rops
12/30 778 18 ASP Yes/Yes
10/28 2937 45 ASP Yes/Yes

Airport map

Aerial View

SKYbrary Partners:

Safety knowledge contributed by: